CZ-6A DEB

Satellite information

Favourite Embed

Satellite Type and Status

DEBRISIN ORBIT

Key statistics

Satellite CZ-6A DEB at a glance.

Uptime

1073

Days in orbit

Revolutions

≈ 14.3

Per day

Orbit

SSO

Sun Synchronous Orbit

Inclination

98.8

Latest

Satellite identification and parameters

Extended collection of information and parameters for CZ-6A DEB.

Object identification

Identified? True

Debris? True

Object name: CZ-6A DEB

International designator: 2022-151SE

Object number (NORAD): 54941

Object ID (CCSDS): 54941

Country: PEOPLES REPUBLIC OF CHINA (PRC)

Current information (Y/N): Y

RCS size: SMALL

Orbital parameters

Period: 100.746 minutes

Inclination: 98.8101 deg

SMA: 7172.075 km

Apoapsis: 821.112 km

Periapsis: 766.768 km

RAAN: 300.1606 deg

Eccentricy: 0.0037886

Argument of periapsis: 266.3842 deg

Mean anomaly: 93.3006 deg

Mean motion: 14.29339869 rev/day

Mean motion (dot): 0.00008774 rev/day2

B* drag term: 0.0034326 1/REarth

Two-line elements (TLE)

Creation date: Oct. 17, 2025, 7:06 a.m.

Reference frame: TEME

Reference center: EARTH

Epoch: Oct. 16, 2025, 6:58 a.m. UTC

TLE line 0: 0 CZ-6A DEB

TLE line 1: 1 54941U 22151SE 25289.29085230 .00008774 00000-0 34326-2 0 9995

TLE line 2: 2 54941 98.8101 300.1606 0037886 266.3842 93.3006 14.29339869149291

Live tracking on map

Real-time ground track for satellite CZ-6A DEB.

In-orbit conjunctions

A list of the most updated potential collisions computed for object CZ-6A DEB.

Target Orbit TCA Probability of collision Miss distance Type
CZ-6A DEB LEO 2025-06-01 07:03:26 0.000734684 22.0 (m) DEBRIS
CZ-6A R/B SSO 2024-05-31 13:18:20 0.0002098956 640.0 (m) ROCKET BODY

Associated space launch

Chinese satellite reported for atmospheric/ocean/environmental/spatial parameter research purposes, details TBD.

CZ-6A DEB was lifted into orbit during the mission ‘Long March 6A | Yunhai 3’, on board a Long March 6A space rocket.

The launch took place on Nov. 11, 2022, 10:52 p.m. from Launch Complex 9A.

For more information about the launch, click the button.

Launch to space Long March 6A | Yunhai 3
Long March 6A | Yunhai 3

Agency: N/A

Status: Launch Successful

Launch date: Nov. 11, 2022, 10:52 p.m. UTC

Rocket: Long March 6A

Launch pad: Launch Complex 9A

Location: Taiyuan Satellite Launch Center, People's Republic of China

...

Latest news about this satellite

There are no fresh news available about this satellite. Check back as we update our databases every day.


Newsletter sign-up

Weekly statistics, charts and insights to help you stay on top of the space industry.